Vorticity
8 11 12 31 8 1 28 5 4 2 2 2 1 1 2 4 4 4 2 3 7 3 6 4 2 2 3 3 4 3 3 4 4 4 6 6 7 4 5 6 6 2 3 7 8
2 5 -5 2 34 10 -3 6 9 -0 1 2 1 3 3 4 5 6 3 2 6 5 2 5 5 2 3 3 3 3 3 3 4 4 4 3 3 4 3 8 5 8 6 6 5
1 6 11 -3 -9 21 17 4 21 4 4 4 3 1 4 5 6 5 6 3 3 5 4 10 7 5 4 3 3 2 2 3 4 5 6 3 1 2 4 2 4 4 7 5 6
10 12 24 13 3 34 6 7 11 3 8 4 4 3 5 4 4 5 7 2 3 4 5 10 10 7 6 6 6 5 4 3 3 3 4 4 5 5 3 5 5 5 4 4 6
18 3 8 2 0 12 14 13 8 12 2 3 4 8 6 4 5 3 6 5 3 2 5 2 6 6 8 10 9 7 7 6 4 4 4 4 3 4 3 3 5 5 4 4 6
-4 23 16 11 4 3 9 9 21 22 11 9 6 6 5 3 5 5 4 6 5 3 1 5 3 6 6 6 7 9 10 11 9 8 6 6 5 5 4 5 4 5 6 6 8
-0 -1 11 13 2 5 9 20 28 22 0 8 7 5 5 2 6 5 7 5 7 6 3 3 5 5 5 4 5 7 7 9 7 10 11 8 6 6 6 6 5 5 7 8 9
5 4 6 7 15 24 23 10 7 9 0 3 5 5 5 4 3 3 6 6 7 8 5 5 7 6 5 6 7 8 7 6 7 11 12 9 8 8 8 7 7 9 8 11 12
8 10 14 20 32 11 30 20 26 18 8 17 24 10 16 9 5 2 1 3 7 7 7 6 5 4 6 6 3 7 4 4 7 12 11 12 9 11 8 9 10 11 11 13 13
3 13 -1 17 16 6 18 28 18 16 6 2 0 5 11 9 12 12 11 5 6 6 7 3 2 5 7 4 5 6 4 5 9 10 11 11 11 12 10 12 11 12 11 7 7
3 4 5 -4 13 4 11 5 10 4 7 3 5 2 8 9 6 8 12 10 5 -3 8 7 6 8 5 6 13 1 -3 2 11 11 11 9 9 9 9 12 11 6 7 8 6
11 -10 8 11 7 17 -8 10 6 12 7 6 4 6 8 8 8 11 11 8 9 9 11 8 8 6 8 13 3 2 4 12 14 10 11 10 11 11 10 6 6 8 6 5 7
3 10 22 4 4 8 3 5 4 20 8 5 6 4 5 9 4 -4 5 10 11 9 11 10 8 9 12 1 -1 2 -2 17 11 14 12 10 11 8 6 8 5 5 4 3 6
-5 2 -11 4 1 7 4 8 4 7 19 13 9 17 12 0 4 5 17 2 10 11 11 9 11 10 3 -8 6 7 10 17 11 10 9 7 6 8 7 6 7 2 3 3 5
-9 16 12 -1 3 5 5 2 13 6 17 12 13 8 17 18 25 23 31 -7 -0 -8 -3 -5 -4 -3 7 15 3 14 18 11 8 8 6 7 8 7 8 5 3 2 2 6 6
9 16 -1 -3 5 3 10 1 6 6 24 17 16 13 14 12 12 9 9 16 14 9 13 14 9 7 8 10 9 16 11 7 6 7 9 8 6 8 6 2 3 3 6 7 12
13 11 -2 4 8 3 5 7 5 23 10 7 17 14 8 10 13 7 4 4 9 11 6 3 3 6 11 15 13 11 8 6 7 7 9 8 9 9 5 3 2 6 5 8 15
19 3 11 9 1 4 4 8 11 9 4 3 8 12 17 9 12 8 12 13 6 4 3 2 9 6 12 9 7 7 7 6 6 7 7 8 9 5 4 3 3 6 4 8 15
4 6 -4 6 4 3 5 6 3 11 5 11 -0 12 13 12 5 5 3 4 7 9 12 16 17 14 7 4 5 7 7 6 7 7 8 8 10 6 4 2 5 5 4 7 16
-7 26 5 13 3 4 8 6 5 11 10 7 10 3 14 10 10 11 11 10 12 10 8 5 4 5 5 6 7 6 4 6 7 8 9 8 8 10 6 4 4 5 6 16 16
4 2 3 3 6 2 8 2 7 11 4 8 9 11 -3 10 6 6 7 6 7 8 4 4 5 8 8 7 5 3 6 8 6 7 8 9 11 9 3 4 5 1 7 14 17
5 12 10 4 12 7 6 0 6 7 9 6 9 11 5 8 4 3 2 3 2 5 10 13 9 8 8 6 3 4 6 6 7 10 8 7 9 10 11 6 7 5 7 14 9
7 5 5 7 18 -1 6 4 4 7 10 10 7 7 9 8 5 4 7 8 6 5 2 4 6 6 5 7 7 6 6 7 7 9 9 7 13 7 9 6 5 5 -4 4 13
8 3 4 7 7 4 5 5 4 9 7 7 4 2 4 7 8 7 7 6 4 3 5 7 6 8 10 7 5 4 3 3 3 5 8 10 6 13 8 7 7 8 10 6 5
6 10 4 26 -1 5 1 2 4 3 4 4 4 5 4 6 4 4 5 6 5 4 4 3 5 6 8 8 6 5 5 7 6 10 11 -3 -0 4 9 9 7 5 2 5 12
4 2 12 0 -0 7 9 4 4 4 3 6 7 7 5 5 6 6 4 5 5 5 4 5 7 8 10 10 10 7 7 8 6 -1 5 7 9 8 11 7 6 5 4 5 10
9 7 5 6 5 11 19 12 5 4 2 3 4 1 6 11 7 6 8 7 7 8 9 8 9 9 8 10 9 8 11 6 5 6 8 7 8 8 14 8 11 13 10 12 20
Height
5819 5821 5823 5825 5830 5836 5840 5846 5851 5854 5858 5861 5864 5866 5867 5869 5870 5871 5872 5874 5874 5875 5876 5876 5878 5879 5880 5880 5879 5879 5879 5879 5879 5878 5878 5878 5877 5875 5874 5873 5872 5870 5869 5868 5867
5813 5814 5817 5819 5823 5828 5833 5839 5843 5848 5852 5855 5858 5861 5862 5864 5867 5868 5870 5870 5871 5873 5874 5874 5875 5876 5877 5877 5877 5876 5877 5876 5877 5877 5877 5875 5873 5873 5871 5871 5870 5869 5867 5866 5865
5806 5808 5810 5813 5817 5821 5826 5831 5836 5840 5845 5849 5851 5854 5857 5859 5862 5864 5866 5867 5868 5869 5870 5871 5871 5872 5873 5874 5874 5873 5874 5873 5873 5873 5873 5873 5870 5870 5870 5869 5867 5866 5866 5865 5863
5799 5801 5803 5806 5811 5814 5817 5823 5829 5833 5837 5842 5845 5848 5851 5854 5858 5859 5861 5863 5865 5866 5867 5868 5868 5869 5870 5870 5870 5870 5870 5869 5870 5870 5869 5869 5869 5868 5867 5867 5865 5863 5863 5862 5861
5792 5794 5797 5800 5805 5807 5811 5815 5821 5826 5829 5834 5838 5841 5844 5848 5851 5853 5855 5858 5860 5862 5863 5864 5865 5865 5866 5867 5866 5865 5866 5865 5865 5866 5866 5866 5864 5864 5864 5862 5861 5860 5858 5858 5857
5786 5788 5790 5793 5797 5800 5804 5808 5814 5817 5821 5825 5830 5835 5839 5843 5844 5847 5850 5852 5855 5857 5859 5860 5861 5861 5863 5863 5862 5861 5861 5862 5861 5861 5860 5861 5858 5859 5859 5858 5856 5856 5855 5853 5852
5779 5782 5783 5785 5789 5794 5797 5801 5806 5808 5812 5817 5822 5827 5832 5835 5839 5841 5844 5846 5849 5852 5854 5855 5856 5857 5858 5859 5858 5857 5857 5856 5856 5855 5854 5854 5853 5854 5853 5851 5851 5850 5850 5848 5848
5773 5777 5779 5780 5782 5786 5790 5794 5798 5801 5801 5807 5814 5819 5824 5828 5832 5836 5839 5840 5843 5846 5849 5850 5851 5853 5854 5855 5854 5853 5852 5852 5851 5850 5849 5847 5847 5849 5847 5846 5846 5846 5844 5843 5842
5767 5770 5774 5774 5778 5779 5782 5787 5790 5793 5797 5801 5807 5811 5816 5822 5826 5830 5832 5835 5838 5840 5843 5845 5847 5848 5849 5851 5850 5848 5847 5846 5846 5846 5844 5843 5841 5843 5840 5840 5841 5840 5840 5839 5838
5761 5765 5767 5769 5772 5771 5775 5778 5784 5787 5790 5794 5800 5806 5811 5817 5819 5823 5826 5830 5833 5835 5838 5840 5842 5842 5844 5846 5845 5845 5843 5842 5841 5841 5839 5837 5836 5836 5835 5836 5836 5836 5835 5834 5834
5755 5759 5761 5764 5767 5769 5770 5773 5778 5783 5786 5790 5796 5800 5804 5809 5814 5817 5821 5823 5827 5830 5832 5834 5836 5836 5839 5839 5840 5839 5838 5838 5837 5835 5834 5833 5832 5832 5831 5831 5832 5832 5832 5831 5830
5748 5753 5757 5757 5761 5765 5764 5765 5770 5776 5781 5787 5792 5796 5800 5804 5808 5811 5815 5819 5821 5824 5827 5829 5830 5832 5833 5834 5834 5834 5834 5832 5832 5831 5829 5828 5828 5827 5827 5828 5828 5828 5827 5827 5827
5742 5746 5751 5753 5757 5759 5762 5764 5764 5770 5777 5782 5787 5790 5794 5798 5801 5804 5810 5813 5816 5819 5821 5823 5825 5827 5827 5828 5829 5830 5830 5828 5827 5827 5825 5824 5825 5825 5824 5824 5824 5824 5823 5823 5822
5734 5739 5745 5747 5752 5754 5758 5760 5761 5765 5771 5776 5780 5783 5787 5792 5794 5799 5803 5809 5812 5813 5815 5818 5820 5821 5822 5824 5824 5823 5824 5823 5823 5823 5822 5821 5822 5820 5820 5821 5820 5820 5819 5818 5818
5725 5731 5739 5744 5747 5751 5754 5755 5757 5762 5766 5770 5774 5779 5783 5785 5792 5792 5796 5801 5805 5807 5810 5814 5815 5816 5817 5819 5818 5819 5819 5819 5819 5818 5818 5818 5818 5817 5817 5816 5815 5815 5814 5812 5811
5718 5725 5731 5737 5741 5745 5749 5752 5755 5759 5760 5766 5768 5773 5777 5781 5784 5787 5792 5796 5799 5802 5805 5807 5809 5811 5812 5813 5813 5815 5814 5814 5815 5815 5815 5814 5814 5814 5813 5812 5811 5809 5808 5806 5804
5709 5717 5723 5728 5735 5740 5744 5747 5751 5753 5759 5763 5765 5767 5771 5775 5778 5783 5787 5791 5795 5798 5800 5801 5804 5805 5806 5807 5808 5809 5810 5810 5810 5810 5810 5810 5810 5810 5809 5807 5806 5804 5802 5800 5797
5699 5708 5715 5720 5727 5734 5739 5742 5745 5752 5754 5758 5761 5764 5767 5771 5775 5779 5783 5787 5790 5792 5795 5796 5799 5799 5801 5802 5804 5805 5805 5805 5804 5805 5805 5804 5805 5805 5803 5802 5800 5798 5796 5794 5791
5692 5700 5707 5712 5719 5725 5731 5734 5741 5746 5750 5754 5757 5759 5764 5768 5772 5775 5778 5781 5785 5787 5790 5791 5793 5794 5796 5798 5799 5800 5800 5800 5799 5800 5799 5800 5799 5799 5796 5795 5793 5791 5789 5787 5784
5684 5692 5698 5705 5711 5718 5723 5728 5736 5738 5743 5748 5753 5757 5759 5764 5768 5770 5773 5777 5779 5782 5784 5786 5788 5790 5791 5792 5794 5795 5796 5796 5794 5794 5794 5793 5793 5793 5790 5788 5785 5784 5783 5780 5777
5674 5682 5690 5696 5703 5710 5715 5723 5730 5733 5738 5742 5747 5751 5755 5759 5763 5766 5769 5773 5774 5776 5779 5781 5783 5786 5787 5788 5788 5790 5791 5790 5789 5789 5787 5787 5789 5788 5783 5780 5778 5778 5775 5772 5769
5665 5673 5680 5687 5696 5703 5708 5718 5723 5727 5731 5736 5741 5745 5750 5754 5757 5760 5764 5766 5769 5772 5774 5775 5777 5779 5781 5782 5783 5784 5785 5784 5783 5783 5781 5778 5783 5780 5776 5773 5771 5770 5768 5766 5763
5657 5666 5671 5681 5688 5695 5703 5712 5716 5720 5726 5730 5735 5739 5744 5748 5752 5755 5758 5761 5764 5766 5767 5769 5771 5772 5775 5777 5777 5777 5778 5777 5777 5775 5775 5770 5774 5770 5769 5765 5763 5761 5760 5758 5756
5646 5655 5662 5673 5680 5688 5694 5702 5708 5714 5719 5725 5729 5733 5737 5740 5745 5749 5752 5755 5757 5759 5761 5762 5763 5766 5769 5769 5771 5771 5771 5770 5769 5769 5765 5768 5763 5763 5759 5755 5754 5752 5751 5749 5747
5637 5647 5657 5665 5671 5680 5687 5693 5699 5705 5710 5716 5722 5726 5730 5734 5737 5740 5746 5748 5750 5752 5754 5755 5756 5758 5761 5761 5762 5763 5763 5763 5762 5762 5757 5761 5754 5757 5752 5749 5745 5742 5740 5738 5736
5631 5640 5650 5657 5664 5671 5679 5687 5692 5698 5704 5710 5715 5719 5723 5727 5730 5733 5736 5740 5742 5746 5747 5748 5748 5749 5751 5752 5753 5753 5754 5756 5754 5754 5751 5748 5748 5743 5743 5741 5737 5734 5731 5728 5725
5624 5634 5644 5649 5656 5662 5672 5681 5685 5690 5697 5702 5706 5710 5715 5720 5722 5725 5728 5732 5735 5737 5739 5740 5741 5741 5742 5744 5745 5743 5749 5746 5745 5745 5742 5739 5738 5734 5733 5731 5728 5724 5721 5717 5713